Regional Weather Roundup
Issued by NWS Goodland, KS

Home | Current Version | Previous Version | Graphics & Text | Print | Product List | Glossary On
Versions: 1 2 3 4 5 6 7 8 9 10 11 12 13 14 15 16 17 18 19 20 21 22 23 24 25 26 27 28 29 30 31 32 33 34 35 36 37 38 39 40 41 42 43 44 45 46 47 48 49 50
000
ASUS43 KGLD 221759
RWRGLD

GOODLAND FORECAST AREA HOURLY WEATHER ROUNDUP
NATIONAL WEATHER SERVICE GOODLAND KS
1200 PM MDT TUE AUG 22 2017

...OFFICIAL OBSERVATIONS...

CITY           SKY/WX    TMP DP  RH WIND       PRES   REMARKS
GOODLAND KS    PTSUNNY   72  58  61 E3        30.31F
HILL CITY KS   SUNNY     81  51  35 NE13      30.24F
IMPERIAL NEB   SUNNY     77  45  32 SE9       30.29F
MCCOOK NEB     SUNNY     76  51  41 E8        30.27F
AKRON CO       SUNNY     73  48  41 SE18      30.33F
BURLINGTON CO  MOSUNNY   73  56  54 SE9       30.34S
LIMON CO       MOSUNNY   72  56  57 SE14      30.37F
$$

...UNOFFICIAL OBSERVATIONS...

CITY           SKY/WX    TMP DP  RH WIND       PRES   REMARKS
LENORA KS        N/A     76  32  20 CALM        N/A
NORTON KS      SUNNY     79  43  27 NE7G16    30.25F
TRENTON NEB      N/A     77  32  19 S6          N/A
KIT CARSON CO    N/A     70  57  63 MISG        N/A
$$




USA.gov is the U.S. government's official web portal to all federal, state and local government web resources and services.